Redmond, OR

11:12 PM PDT on April 29, 2017 (GMT -0700)
Roberts Field Airport

Weather History for KRDM - November, 2014

Change the Weather History Date:

Sunday, November 23, 2014

  Actual Average Record
Temperature  
Mean Temperature 36 °F 35 °F  
Max Temperature 49 °F 46 °F 65 °F (1959)
Min Temperature 23 °F 24 °F -8 °F (1985)
Degree Days  
Heating Degree Days 29 30  
Month to date heating degree days 778 609  
Since 1 July heating degree days 1412 1554  
Cooling Degree Days 0 0  
Month to date cooling degree days 0 0  
Year to date cooling degree days 311 222  
Moisture  
Dew Point 28 °F    
Average Humidity 71    
Maximum Humidity 92    
Minimum Humidity 49    
Precipitation  
Precipitation 0.00 in 0.04 in 0.64 in (1961)
Month to date precipitation 1.86 0.72  
Year to date precipitation 7.94 7.50  
Sea Level Pressure  
Sea Level Pressure 30.30 in    
Wind  
Wind Speed 4 mph (South)    
Max Wind Speed 23 mph    
Max Gust Speed 28 mph    
Visibility 10 miles    
Events      
T = Trace of Precipitation, MM = Missing Value Source: NWS Daily Summary

Daily Weather History Graph

Daily Weather History Graph

Search for Another Location

Airport or City:

Trip Planner

Search our weather history database for the weather conditions in past years. The results will help you decide how hot, cold, wet, or windy it might be!

Date:

Astronomy

Nov. 23, 2014 Rise Set
Actual Time 7:10 AM PST 4:31 PM PST
Civil Twilight 6:38 AM PST 5:03 PM PST
Nautical Twilight 6:03 AM PST 5:38 PM PST
Astronomical Twilight 5:28 AM PST 6:13 PM PST
Moon 8:11 AM PST (11/23) 5:59 PM PST (11/23)
Length of Visible Light 10h 24m
Length of Day
9h 20m
New Moon, 2% of the Moon is Illuminated
Nov 23
New Moon
Nov 29
First Quarter
Dec 6
Full
Dec 14
Last Quarter
Dec 21
New

Hourly Weather History & Observations

Time (PST) Temp. Windchill Dew Point Humidity Pressure Visibility Wind Dir Wind Speed Gust Speed Precip Events Conditions
12:56 AM 30.0 °F 25.2 °F 27.0 °F 88% 30.26 in 10.0 mi SSW 4.6 mph - N/A   Clear
1:56 AM 28.9 °F 25.2 °F 26.1 °F 89% 30.28 in 10.0 mi SE 3.5 mph - N/A   Clear
2:56 AM 28.9 °F - 26.1 °F 89% 30.29 in 10.0 mi Calm Calm - N/A   Clear
3:56 AM 28.0 °F - 26.1 °F 92% 30.30 in 10.0 mi Calm Calm - N/A   Clear
4:56 AM 25.0 °F 19.3 °F 23.0 °F 92% 30.30 in 10.0 mi NE 4.6 mph - N/A   Clear
5:56 AM 25.0 °F 20.7 °F 23.0 °F 92% 30.31 in 10.0 mi ENE 3.5 mph - N/A   Clear
6:56 AM 24.1 °F - 23.0 °F 96% 30.33 in 10.0 mi Calm Calm - N/A   Mostly Cloudy
7:56 AM 28.9 °F 23.9 °F 27.0 °F 92% 30.33 in 10.0 mi SSE 4.6 mph - N/A   Clear
8:56 AM 36.0 °F - 30.9 °F 82% 30.33 in 10.0 mi Calm Calm - N/A   Clear
9:56 AM 42.1 °F 38.4 °F 30.9 °F 65% 30.32 in 10.0 mi SSE 5.8 mph - N/A   Clear
10:56 AM 44.1 °F 39.5 °F 30.9 °F 60% 30.30 in 10.0 mi SSW 8.1 mph - N/A   Clear
11:56 AM 45.0 °F 41.8 °F 30.9 °F 58% 30.27 in 10.0 mi SSW 5.8 mph - N/A   Clear
12:56 PM 46.9 °F - 30.0 °F 52% 30.25 in 10.0 mi South 10.4 mph - N/A   Clear
1:56 PM 48.0 °F - 30.0 °F 50% 30.25 in 10.0 mi Variable 3.5 mph - N/A   Clear
2:56 PM 46.9 °F - 28.9 °F 50% 30.25 in 10.0 mi WNW 16.1 mph - N/A   Clear
3:56 PM 45.0 °F 41.2 °F 30.0 °F 56% 30.26 in 10.0 mi West 6.9 mph - N/A   Clear
4:56 PM 42.1 °F 40.2 °F 30.0 °F 62% 30.30 in 10.0 mi SSW 3.5 mph - N/A   Clear
5:56 PM 39.9 °F - 28.9 °F 65% 30.32 in 10.0 mi Calm Calm - N/A   Mostly Cloudy
6:56 PM 37.9 °F - 28.9 °F 70% 30.32 in 10.0 mi Calm Calm - N/A   Partly Cloudy
7:56 PM 35.1 °F 32.2 °F 28.0 °F 76% 30.34 in 10.0 mi East 3.5 mph - N/A   Partly Cloudy
8:56 PM 32.0 °F - 28.0 °F 85% 30.34 in 10.0 mi Calm Calm - N/A   Scattered Clouds
9:56 PM 33.1 °F - 28.9 °F 85% 30.33 in 10.0 mi Calm Calm - N/A   Mostly Cloudy
10:56 PM 32.0 °F 27.5 °F 28.9 °F 88% 30.34 in 10.0 mi South 4.6 mph - N/A   Scattered Clouds
11:56 PM 32.0 °F 28.7 °F 28.9 °F 88% 30.33 in 10.0 mi SE 3.5 mph - N/A   Clear